Погода в Хоскинсе

Папуа-Новая Гвинея     5°29′02″S   150°22′06″E
темп.,
°C
ветер,
м/с
пор.,
м/с
влажн.,
%
обл.,
%
осадки,
мм/ч
давл.,
гПа
погр.,
м
17 июня, чт
чт1701:00+24ю239099 1.1 1011115
04:00+23ю3390100 2.4 1011127
07:00+24ю2389100 0.3 1013136
10:00+29ю126472 0.3 1013671
13:00+30с4361100 0.0 10091020
16:00+28всв017865 1.1 1009193
19:00+25ююв238556 1.4 1011157
22:00+24ююв3490100 1.4 1012135
18 июня, пт
пт1801:00+23ю349198 0.0 1011135
04:00+23ю23908 0.0 1010125
07:00+23ю23898 0.0 1012140
10:00+29юв126644 0.0 1012698
13:00+30с436041 0.0 10091215
16:00+28с237416 0.2 1008298
19:00+26вюв1179100 0.2 1010161
22:00+24ююв338791 0.2 1012119
19 июня, сб
сб1901:00+23ю338797 0.0 1010115
04:00+23ю2286100 0.0 1010116
07:00+24ю2383100 0.0 1012135
10:00+29юв136010 0.0 1011743
13:00+31с335622 0.0 10091401
16:00+27с237722 0.5 1008255
19:00+26юв1180100 0.5 1010209
22:00+24ю3389100 0.6 1012123
20 июня, вс
вс2001:00+23ю238917 0.0 1011129
04:00+23ю33898 0.0 1010123
07:00+23ююв238615 0.0 1012134
10:00+29юв13595 0.0 1012794
13:00+28ссв3370100 0.3 1009367
16:00+26с008165 2.9 1009123
19:00+25ююв228516 2.1 1011143
22:00+23ююв339022 2.3 1013139
21 июня, пн
пн2101:00+23ююв339051 0.0 1012129
04:00+23ююв339138 0.0 1011134
07:00+24ююв239077 0.0 1012144
10:00+28вюв126722 0.0 1012636
13:00+29с436574 0.0 10101014
16:00+28с337065 0.0 1009519
19:00+26вюв117845 0.0 1010265
22:00+25ю22876 0.1 1011118